DLH419 KIAD-EDDF

Flight info

Callsign DLH419
Flight time N/A
Altitude 37000
Route JCOBY4 SWANN DCT BROSS Q419 RBV Q22 FOXWD DCT WITCH DCT ALLEX DCT TUDEP/M081F380 DCT 52N050W 53N040W 54N030W 55N020W DCT RESNO DCT NETKI/N0463F390 DCT BOFUM Q37 MALUD UL975 WAL M16 DOLAS DCT NAVPI DCT SOGPO DCT DIXAT DIXAT1A
Aircraft A346/H-SDE2E3FGHIJ3J4J5M1RWXYZ/LB1D1

Departure

Time 2026-05-06 09:34
Airport Washington Dulles International Airport (KIAD)

Arrival

Time N/A
Airport Frankfurt Main Airport (EDDF)
Time Latitude Longitude Altitude Speed Heading
2026-05-06 08:20 38.94943 -77.45016 309 ft 0 kts 200°
2026-05-06 09:21 38.94957 -77.45010 309 ft 2 kts 200°
2026-05-06 09:22 38.94981 -77.44999 309 ft 4 kts 200°
2026-05-06 09:22 38.95005 -77.44985 309 ft 4 kts 212°
2026-05-06 09:22 38.95018 -77.44970 308 ft 4 kts 249°
2026-05-06 09:22 38.95019 -77.44949 308 ft 4 kts 270°
2026-05-06 09:23 38.95019 -77.44916 308 ft 2 kts 270°
2026-05-06 09:23 38.95019 -77.44913 309 ft 0 kts 270°
2026-05-06 09:25 38.95019 -77.44915 309 ft 1 kts 270°
2026-05-06 09:26 38.95019 -77.44937 309 ft 4 kts 270°
2026-05-06 09:26 38.95020 -77.44989 309 ft 8 kts 270°
2026-05-06 09:26 38.95020 -77.45071 309 ft 11 kts 270°
2026-05-06 09:26 38.95020 -77.45178 309 ft 13 kts 270°
2026-05-06 09:27 38.95021 -77.45294 309 ft 13 kts 270°
2026-05-06 09:27 38.95022 -77.45419 309 ft 15 kts 270°
2026-05-06 09:27 38.95023 -77.45528 309 ft 13 kts 270°
2026-05-06 09:27 38.95024 -77.45638 308 ft 10 kts 271°
2026-05-06 09:28 38.94995 -77.45710 311 ft 11 kts 205°
2026-05-06 09:28 38.94915 -77.45720 310 ft 12 kts 180°
2026-05-06 09:28 38.94823 -77.45721 309 ft 14 kts 180°
2026-05-06 09:28 38.94724 -77.45723 309 ft 15 kts 181°
2026-05-06 09:29 38.94621 -77.45725 310 ft 15 kts 181°
2026-05-06 09:29 38.94514 -77.45725 310 ft 16 kts 180°
2026-05-06 09:29 38.94402 -77.45727 310 ft 16 kts 180°
2026-05-06 09:29 38.94282 -77.45728 310 ft 18 kts 180°
2026-05-06 09:30 38.94153 -77.45730 311 ft 18 kts 180°
2026-05-06 09:30 38.94042 -77.45731 311 ft 16 kts 180°
2026-05-06 09:30 38.93935 -77.45732 309 ft 15 kts 181°
2026-05-06 09:30 38.93839 -77.45735 310 ft 12 kts 181°
2026-05-06 09:31 38.93762 -77.45702 310 ft 13 kts 135°
2026-05-06 09:31 38.93699 -77.45607 311 ft 15 kts 130°
2026-05-06 09:31 38.93639 -77.45522 311 ft 11 kts 142°
2026-05-06 09:31 38.93569 -77.45506 309 ft 11 kts 190°
2026-05-06 09:32 38.93496 -77.45539 310 ft 10 kts 200°
2026-05-06 09:32 38.93421 -77.45577 308 ft 11 kts 206°
2026-05-06 09:32 38.93380 -77.45634 310 ft 9 kts 252°
2026-05-06 09:32 38.93385 -77.45683 309 ft 4 kts 289°
2026-05-06 09:33 38.93386 -77.45688 309 ft 2 kts 289°
2026-05-06 09:33 38.93455 -77.45930 308 ft 62 kts 290°
2026-05-06 09:33 38.93689 -77.46721 312 ft 125 kts 290°
2026-05-06 09:33 38.94061 -77.47971 315 ft 176 kts 288°
2026-05-06 09:34 38.94554 -77.49526 663 ft 193 kts 287°
2026-05-06 09:34 38.95203 -77.51071 1382 ft 201 kts 300°
2026-05-06 09:34 38.96086 -77.52475 1974 ft 203 kts 295°
2026-05-06 09:34 38.97010 -77.53959 2326 ft 224 kts 303°
2026-05-06 09:35 38.98207 -77.55387 2620 ft 246 kts 308°
2026-05-06 09:35 38.99533 -77.56873 3108 ft 260 kts 309°
2026-05-06 09:35 39.00902 -77.58446 3741 ft 265 kts 309°
2026-05-06 09:35 39.02358 -77.59926 4574 ft 274 kts 325°
2026-05-06 09:36 39.04210 -77.60584 5295 ft 290 kts 352°
2026-05-06 09:36 39.06230 -77.60145 5798 ft 305 kts 23°
2026-05-06 09:36 39.07865 -77.58384 6463 ft 311 kts 58°
2026-05-06 09:36 39.08759 -77.55892 7327 ft 305 kts 72°
2026-05-06 09:37 39.09449 -77.53293 8083 ft 308 kts 74°
2026-05-06 09:37 39.10133 -77.50660 8786 ft 312 kts 73°
2026-05-06 09:37 39.10854 -77.48003 9536 ft 315 kts 72°
2026-05-06 09:37 39.11607 -77.45339 10270 ft 318 kts 71°
2026-05-06 09:38 39.12394 -77.42620 10742 ft 331 kts 71°
2026-05-06 09:38 39.13215 -77.39803 11053 ft 348 kts 72°
2026-05-06 09:38 39.14089 -77.36804 11356 ft 366 kts 71°
2026-05-06 09:38 39.14990 -77.33653 11662 ft 382 kts 75°
2026-05-06 09:39 39.15495 -77.30240 11955 ft 394 kts 90°
2026-05-06 09:39 39.15315 -77.26691 12290 ft 401 kts 104°
2026-05-06 09:39 39.14723 -77.23149 12917 ft 406 kts 107°
2026-05-06 09:39 39.14076 -77.19589 13604 ft 409 kts 107°
2026-05-06 09:40 39.13436 -77.15976 14239 ft 414 kts 107°
2026-05-06 09:40 39.12843 -77.12379 14809 ft 419 kts 106°
2026-05-06 09:40 39.11658 -77.04925 15848 ft 429 kts 105°
2026-05-06 09:41 39.11130 -77.01115 16355 ft 435 kts 101°
2026-05-06 09:41 39.10833 -76.97193 16847 ft 442 kts 96°
2026-05-06 09:41 39.10798 -76.93168 17346 ft 448 kts 91°
2026-05-06 09:41 39.10894 -76.89126 17885 ft 453 kts 90°
2026-05-06 09:42 39.11016 -76.85036 18413 ft 457 kts 90°
2026-05-06 09:42 39.11135 -76.80971 18898 ft 461 kts 90°
2026-05-06 09:42 39.11249 -76.76825 19386 ft 465 kts 90°
2026-05-06 09:42 39.11356 -76.72651 19831 ft 469 kts 90°
2026-05-06 09:43 39.11460 -76.68388 20245 ft 474 kts 90°
2026-05-06 09:43 39.11562 -76.64123 20711 ft 478 kts 90°
2026-05-06 09:43 39.11662 -76.59813 21188 ft 482 kts 89°
2026-05-06 09:43 39.11767 -76.55470 21654 ft 487 kts 89°
2026-05-06 09:44 39.12006 -76.51041 22099 ft 492 kts 85°
2026-05-06 09:44 39.12427 -76.46707 22554 ft 495 kts 82°
2026-05-06 09:44 39.12927 -76.42293 23074 ft 498 kts 81°
2026-05-06 09:44 39.13444 -76.37861 23553 ft 502 kts 81°
2026-05-06 09:45 39.13963 -76.33396 23921 ft 505 kts 81°
2026-05-06 09:45 39.14476 -76.28895 24294 ft 509 kts 81°
2026-05-06 09:45 39.14987 -76.24331 24667 ft 513 kts 81°
2026-05-06 09:45 39.15503 -76.19757 25029 ft 516 kts 81°
2026-05-06 09:46 39.16032 -76.15163 25406 ft 520 kts 81°
2026-05-06 09:46 39.16559 -76.10570 25765 ft 523 kts 80°
2026-05-06 09:46 39.17058 -76.06214 26181 ft 524 kts 80°
2026-05-06 09:46 39.17558 -76.01847 26549 ft 527 kts 79°
2026-05-06 09:47 39.18093 -75.97159 26910 ft 530 kts 80°
2026-05-06 09:47 39.18725 -75.92456 27169 ft 534 kts 72°
2026-05-06 09:47 39.20133 -75.88012 27342 ft 531 kts 55°
2026-05-06 09:47 39.22363 -75.84291 27704 ft 520 kts 38°
2026-05-06 09:48 39.25076 -75.81242 28325 ft 511 kts 33°
2026-05-06 09:48 39.27817 -75.78346 28959 ft 507 kts 32°
2026-05-06 09:48 39.30513 -75.75509 29524 ft 506 kts 33°
2026-05-06 09:48 39.33227 -75.72606 30027 ft 506 kts 33°
2026-05-06 09:49 39.35919 -75.69682 30471 ft 505 kts 33°
2026-05-06 09:49 39.38600 -75.66743 30935 ft 505 kts 33°
2026-05-06 09:49 39.41277 -75.63800 31329 ft 505 kts 33°
2026-05-06 09:49 39.43951 -75.60858 31748 ft 504 kts 33°
2026-05-06 09:50 39.45718 -75.58912 32055 ft 503 kts 33°
2026-05-06 09:50 39.49239 -75.55030 32683 ft 500 kts 32°
2026-05-06 09:50 39.51886 -75.52109 33131 ft 499 kts 32°
2026-05-06 09:50 39.54524 -75.49197 33571 ft 497 kts 32°
2026-05-06 09:51 39.57147 -75.46298 34020 ft 495 kts 31°
2026-05-06 09:51 39.59771 -75.43396 34340 ft 495 kts 31°
2026-05-06 09:51 39.62391 -75.40498 34643 ft 495 kts 31°
2026-05-06 09:51 39.64123 -75.38582 34875 ft 493 kts 31°
2026-05-06 09:52 39.67605 -75.34715 35373 ft 491 kts 31°
2026-05-06 09:52 39.69324 -75.32805 35568 ft 491 kts 31°
2026-05-06 09:52 39.71922 -75.29918 35789 ft 492 kts 31°
2026-05-06 09:52 39.75375 -75.26078 36057 ft 494 kts 31°
2026-05-06 09:53 39.77953 -75.23103 36262 ft 498 kts 34°
2026-05-06 09:53 39.80428 -75.19913 36484 ft 503 kts 37°
2026-05-06 09:53 39.82003 -75.17683 36625 ft 506 kts 39°
2026-05-06 09:53 39.84337 -75.14238 36835 ft 508 kts 40°
2026-05-06 09:54 39.88979 -75.07276 36924 ft 509 kts 40°
2026-05-06 09:54 39.93628 -75.00332 36961 ft 507 kts 40°
2026-05-06 09:55 39.98079 -74.93132 36933 ft 515 kts 46°
2026-05-06 09:55 40.02082 -74.85407 36925 ft 518 kts 49°
2026-05-06 09:56 40.06048 -74.77549 36925 ft 518 kts 49°
2026-05-06 09:56 40.10027 -74.69690 36912 ft 518 kts 48°
2026-05-06 09:57 40.14008 -74.61836 36923 ft 518 kts 49°
2026-05-06 09:57 40.18134 -74.54143 36905 ft 513 kts 43°
2026-05-06 09:58 40.22776 -74.47240 36923 ft 504 kts 36°
2026-05-06 09:58 40.27944 -74.41153 36939 ft 496 kts 30°
2026-05-06 09:59 40.33327 -74.35444 36942 ft 496 kts 30°
2026-05-06 09:59 40.38673 -74.29766 36914 ft 496 kts 30°
2026-05-06 10:00 40.44031 -74.24023 36906 ft 496 kts 30°
2026-05-06 10:00 40.49378 -74.18274 36926 ft 497 kts 30°
2026-05-06 10:01 40.54751 -74.12485 36912 ft 499 kts 30°
2026-05-06 10:01 40.60118 -74.06685 36910 ft 499 kts 30°
2026-05-06 10:02 40.65445 -74.00914 36911 ft 499 kts 30°
2026-05-06 10:02 40.70799 -73.95102 36909 ft 498 kts 31°
2026-05-06 10:03 40.76156 -73.89270 36906 ft 498 kts 31°
2026-05-06 10:03 40.81489 -73.83406 36898 ft 500 kts 33°
2026-05-06 10:04 40.86502 -73.76899 36923 ft 510 kts 40°
2026-05-06 10:04 40.90961 -73.69520 36910 ft 518 kts 47°
2026-05-06 10:05 40.95096 -73.61704 36906 ft 517 kts 48°
2026-05-06 10:05 40.99208 -73.53862 36909 ft 516 kts 48°
2026-05-06 10:06 41.03317 -73.46062 36919 ft 516 kts 48°
2026-05-06 10:06 41.07401 -73.38306 36927 ft 516 kts 48°
2026-05-06 10:07 41.11508 -73.30491 36931 ft 516 kts 48°
2026-05-06 10:07 41.15605 -73.22676 36934 ft 513 kts 49°
2026-05-06 10:08 41.19682 -73.14885 36941 ft 513 kts 49°
2026-05-06 10:08 41.23722 -73.07134 36936 ft 513 kts 49°
2026-05-06 10:09 41.27786 -72.99318 36933 ft 513 kts 49°
2026-05-06 10:09 41.31614 -72.91250 36931 ft 515 kts 53°
2026-05-06 10:10 41.35282 -72.83056 36940 ft 515 kts 54°
2026-05-06 10:10 41.38917 -72.74897 36936 ft 515 kts 54°
2026-05-06 10:11 41.42582 -72.66676 36951 ft 515 kts 54°
2026-05-06 10:11 41.46242 -72.58454 36940 ft 515 kts 54°
2026-05-06 10:12 41.49894 -72.50230 36933 ft 515 kts 54°
2026-05-06 10:12 41.53516 -72.42055 36933 ft 515 kts 54°
2026-05-06 10:13 41.57159 -72.33809 36942 ft 515 kts 54°
2026-05-06 10:13 41.60791 -72.25565 36946 ft 515 kts 54°
2026-05-06 10:14 41.64421 -72.17306 36940 ft 515 kts 54°
2026-05-06 10:14 41.68024 -72.09083 36934 ft 515 kts 54°
2026-05-06 10:15 41.71643 -72.00796 36938 ft 515 kts 54°
2026-05-06 10:15 41.75255 -71.92502 36940 ft 515 kts 54°
2026-05-06 10:16 41.79207 -71.84553 36954 ft 509 kts 46°
2026-05-06 10:16 41.83840 -71.77450 36940 ft 503 kts 38°
2026-05-06 10:17 41.89015 -71.71342 36947 ft 496 kts 31°
2026-05-06 10:17 41.94480 -71.65698 36980 ft 495 kts 30°
2026-05-06 10:18 41.99959 -71.60061 36960 ft 497 kts 31°
2026-05-06 10:18 42.05436 -71.54378 36956 ft 494 kts 31°
2026-05-06 10:19 42.10781 -71.48798 36945 ft 487 kts 31°
2026-05-06 10:19 42.16137 -71.43196 36949 ft 487 kts 31°
2026-05-06 10:20 42.21493 -71.37583 36928 ft 488 kts 31°
2026-05-06 10:20 42.26876 -71.31928 36923 ft 488 kts 31°
2026-05-06 10:21 42.32202 -71.26322 36929 ft 489 kts 31°
2026-05-06 10:21 42.37570 -71.20658 36929 ft 489 kts 32°
2026-05-06 10:22 42.42941 -71.14976 36925 ft 490 kts 32°
2026-05-06 10:22 42.48342 -71.09251 36923 ft 491 kts 32°
2026-05-06 10:23 42.53683 -71.03575 36914 ft 491 kts 32°
2026-05-06 10:23 42.59066 -70.97842 36913 ft 491 kts 32°
2026-05-06 10:24 42.64342 -70.91867 36923 ft 497 kts 37°
2026-05-06 10:24 42.69156 -70.85046 36908 ft 501 kts 44°
2026-05-06 10:25 42.73365 -70.77440 36905 ft 505 kts 51°
2026-05-06 10:25 42.77167 -70.69440 36937 ft 506 kts 52°
2026-05-06 10:26 42.80978 -70.61323 36908 ft 507 kts 52°
2026-05-06 10:26 42.84789 -70.53221 36898 ft 507 kts 52°
2026-05-06 10:27 42.88592 -70.45136 36906 ft 505 kts 52°
2026-05-06 10:27 42.92386 -70.37052 36924 ft 506 kts 52°
2026-05-06 10:28 42.96160 -70.28995 36919 ft 507 kts 52°
2026-05-06 10:28 42.99955 -70.20868 36914 ft 507 kts 52°
2026-05-06 10:29 43.03736 -70.12757 36922 ft 504 kts 53°
2026-05-06 10:29 43.07499 -70.04653 36921 ft 504 kts 53°
2026-05-06 10:30 43.11228 -69.96599 36925 ft 504 kts 53°
2026-05-06 10:30 43.14979 -69.88477 36934 ft 504 kts 53°
2026-05-06 10:31 43.18721 -69.80362 36916 ft 503 kts 53°
2026-05-06 10:31 43.22451 -69.72237 36936 ft 503 kts 53°
2026-05-06 10:32 43.26155 -69.64151 36935 ft 503 kts 53°
2026-05-06 10:32 43.29879 -69.56000 36937 ft 503 kts 53°
2026-05-06 10:33 43.33597 -69.47841 36950 ft 503 kts 54°
2026-05-06 10:33 43.37306 -69.39676 36946 ft 503 kts 54°
2026-05-06 10:34 43.40983 -69.31560 36934 ft 503 kts 54°
2026-05-06 10:34 43.44669 -69.23404 36947 ft 500 kts 54°
2026-05-06 10:35 43.48341 -69.15257 36954 ft 501 kts 54°
2026-05-06 10:35 43.52011 -69.07086 36952 ft 501 kts 54°
2026-05-06 10:36 43.55672 -68.98913 36954 ft 501 kts 54°
2026-05-06 10:36 43.59306 -68.90777 36970 ft 501 kts 54°
2026-05-06 10:37 43.62964 -68.82571 36964 ft 502 kts 55°
2026-05-06 10:37 43.66616 -68.74349 36961 ft 502 kts 55°
2026-05-06 10:38 43.70260 -68.66122 36958 ft 500 kts 55°
2026-05-06 10:38 43.73865 -68.57963 36973 ft 501 kts 55°
2026-05-06 10:39 43.77497 -68.49718 36964 ft 501 kts 55°
2026-05-06 10:39 43.81121 -68.41466 36963 ft 501 kts 55°
2026-05-06 10:40 43.84743 -68.33196 36968 ft 501 kts 55°
2026-05-06 10:40 43.88334 -68.24976 36974 ft 502 kts 55°
2026-05-06 10:41 43.91947 -68.16680 36970 ft 502 kts 55°
2026-05-06 10:41 43.95558 -68.08369 36970 ft 502 kts 56°
2026-05-06 10:42 43.99159 -68.00052 36972 ft 502 kts 56°
2026-05-06 10:42 44.02752 -67.91730 36976 ft 503 kts 56°
2026-05-06 10:43 44.06320 -67.83439 36980 ft 503 kts 56°
2026-05-06 10:44 44.11701 -67.70893 36977 ft 503 kts 56°
2026-05-06 10:44 44.15285 -67.62509 36995 ft 504 kts 56°
2026-05-06 10:45 44.18847 -67.54151 36985 ft 505 kts 56°
2026-05-06 10:45 44.22430 -67.45727 36973 ft 505 kts 57°
2026-05-06 10:46 44.25999 -67.37296 36992 ft 504 kts 57°
2026-05-06 10:46 44.29569 -67.28844 36996 ft 505 kts 57°
2026-05-06 10:47 44.33135 -67.20370 36990 ft 506 kts 57°
2026-05-06 10:47 44.36674 -67.11935 36999 ft 506 kts 57°
2026-05-06 10:48 44.40281 -67.03484 36994 ft 505 kts 54°
2026-05-06 10:48 44.44412 -66.95546 36991 ft 503 kts 47°
2026-05-06 10:49 44.48974 -66.88131 36993 ft 502 kts 45°
2026-05-06 10:49 44.53542 -66.80823 36971 ft 502 kts 46°
2026-05-06 10:50 44.58137 -66.73427 36987 ft 503 kts 46°
2026-05-06 10:50 44.62720 -66.65993 36983 ft 503 kts 47°
2026-05-06 10:51 44.67296 -66.58547 36983 ft 503 kts 47°
2026-05-06 10:51 44.71839 -66.51137 36984 ft 503 kts 47°
2026-05-06 10:52 44.76412 -66.43661 36978 ft 504 kts 47°
2026-05-06 10:52 44.80978 -66.36171 36983 ft 504 kts 47°
2026-05-06 10:53 44.85543 -66.28665 36979 ft 504 kts 47°
2026-05-06 10:53 44.90106 -66.21147 36985 ft 505 kts 47°
2026-05-06 10:54 44.94639 -66.13654 36993 ft 505 kts 47°
2026-05-06 10:54 44.99196 -66.06098 37015 ft 505 kts 47°
2026-05-06 10:55 45.03752 -65.98531 37025 ft 506 kts 48°
2026-05-06 10:55 45.08317 -65.90925 37015 ft 507 kts 48°
2026-05-06 10:56 45.12850 -65.83350 37003 ft 507 kts 48°
2026-05-06 10:56 45.17405 -65.75720 37008 ft 507 kts 48°
2026-05-06 10:57 45.21965 -65.68062 37006 ft 508 kts 48°
2026-05-06 10:57 45.26521 -65.60385 36992 ft 508 kts 48°
2026-05-06 10:58 45.31046 -65.52742 36999 ft 508 kts 48°
2026-05-06 10:58 45.35595 -65.45041 36995 ft 509 kts 49°
2026-05-06 10:59 45.40144 -65.37315 37000 ft 509 kts 49°
2026-05-06 10:59 45.44686 -65.29579 36997 ft 509 kts 49°
2026-05-06 11:00 45.49192 -65.21885 36982 ft 509 kts 49°
2026-05-06 11:00 45.53733 -65.14109 36995 ft 509 kts 49°
2026-05-06 11:01 45.58267 -65.06323 37002 ft 510 kts 49°
2026-05-06 11:01 45.62791 -64.98530 37003 ft 509 kts 49°
2026-05-06 11:02 45.67291 -64.90766 36976 ft 510 kts 49°
2026-05-06 11:02 45.71818 -64.82926 36970 ft 510 kts 49°
2026-05-06 11:03 45.76341 -64.75070 36989 ft 510 kts 49°
2026-05-06 11:03 45.80860 -64.67202 36969 ft 512 kts 49°
2026-05-06 11:04 45.85389 -64.59294 36966 ft 512 kts 50°
2026-05-06 11:04 45.89881 -64.51428 36962 ft 512 kts 50°
2026-05-06 11:05 45.94396 -64.43497 36960 ft 512 kts 50°
2026-05-06 11:05 45.98908 -64.35551 36955 ft 513 kts 50°
2026-05-06 11:06 46.03385 -64.27645 36949 ft 513 kts 50°
2026-05-06 11:06 46.07887 -64.19671 36956 ft 512 kts 50°
2026-05-06 11:07 46.12385 -64.11683 36956 ft 513 kts 50°
2026-05-06 11:07 46.16878 -64.03671 36946 ft 512 kts 50°
2026-05-06 11:08 46.21325 -63.95728 36948 ft 512 kts 50°
2026-05-06 11:08 46.25797 -63.87717 36967 ft 512 kts 50°
2026-05-06 11:09 46.30272 -63.79678 36961 ft 513 kts 50°
2026-05-06 11:09 46.34743 -63.71624 36958 ft 513 kts 50°
2026-05-06 11:10 46.39174 -63.63616 36957 ft 513 kts 50°
2026-05-06 11:10 46.43638 -63.55529 36960 ft 513 kts 50°
2026-05-06 11:11 46.48094 -63.47429 36961 ft 513 kts 50°
2026-05-06 11:11 46.52549 -63.39305 36961 ft 514 kts 50°
2026-05-06 11:12 46.56966 -63.31229 36973 ft 514 kts 50°
2026-05-06 11:12 46.61415 -63.23071 36962 ft 514 kts 50°
2026-05-06 11:13 46.65861 -63.14892 36963 ft 514 kts 50°
2026-05-06 11:13 46.70297 -63.06708 36953 ft 514 kts 50°
2026-05-06 11:14 46.74687 -62.98584 36976 ft 513 kts 50°
2026-05-06 11:14 46.79098 -62.90401 36971 ft 513 kts 50°
2026-05-06 11:15 46.83504 -62.82203 36976 ft 513 kts 50°
2026-05-06 11:15 46.87906 -62.73989 36980 ft 513 kts 51°
2026-05-06 11:16 46.92306 -62.65751 36979 ft 514 kts 51°
2026-05-06 11:16 46.96674 -62.57548 36983 ft 514 kts 51°
2026-05-06 11:17 47.01062 -62.49284 36983 ft 514 kts 51°
2026-05-06 11:17 47.05447 -62.41000 36983 ft 514 kts 51°
2026-05-06 11:18 47.09827 -62.32701 36979 ft 514 kts 51°
2026-05-06 11:18 47.14170 -62.24448 36986 ft 514 kts 51°
2026-05-06 11:19 47.18542 -62.16116 36994 ft 514 kts 51°
2026-05-06 11:19 47.22907 -62.07769 36989 ft 515 kts 51°
2026-05-06 11:20 47.27259 -61.99427 36972 ft 511 kts 51°
2026-05-06 11:20 47.31553 -61.91166 36981 ft 510 kts 51°
2026-05-06 11:21 47.35864 -61.82850 36970 ft 510 kts 52°
2026-05-06 11:21 47.40169 -61.74516 36970 ft 510 kts 52°
2026-05-06 11:22 47.44468 -61.66170 36970 ft 510 kts 52°
2026-05-06 11:22 47.48734 -61.57865 36969 ft 510 kts 52°
2026-05-06 11:23 47.53023 -61.49488 36968 ft 510 kts 52°
2026-05-06 11:23 47.57304 -61.41102 36975 ft 510 kts 52°
2026-05-06 11:24 47.61549 -61.32760 36980 ft 510 kts 52°
2026-05-06 11:24 47.65826 -61.24333 36991 ft 512 kts 52°
2026-05-06 11:25 47.70104 -61.15875 36982 ft 512 kts 52°
2026-05-06 11:25 47.74377 -61.07399 36983 ft 512 kts 52°
2026-05-06 11:26 47.78617 -60.98964 36988 ft 512 kts 52°
2026-05-06 11:26 47.82873 -60.90481 36987 ft 509 kts 53°
2026-05-06 11:27 47.87100 -60.82015 36987 ft 509 kts 53°
2026-05-06 11:27 47.91323 -60.73533 36985 ft 509 kts 53°
2026-05-06 11:28 47.95512 -60.65092 36990 ft 510 kts 53°
2026-05-06 11:28 47.99737 -60.56554 36969 ft 511 kts 53°
2026-05-06 11:29 48.03960 -60.47997 36988 ft 512 kts 53°
2026-05-06 11:29 48.08180 -60.39417 36987 ft 512 kts 53°
2026-05-06 11:30 48.12365 -60.30882 36983 ft 512 kts 53°
2026-05-06 11:30 48.16582 -60.22254 36981 ft 513 kts 53°
2026-05-06 11:31 48.20795 -60.13607 36994 ft 513 kts 53°
2026-05-06 11:31 48.24997 -60.04954 37013 ft 513 kts 53°
2026-05-06 11:32 48.29189 -59.96296 37011 ft 512 kts 53°
2026-05-06 11:32 48.33349 -59.87675 37007 ft 512 kts 53°
2026-05-06 11:33 48.37518 -59.79010 36997 ft 510 kts 54°
2026-05-06 11:33 48.41668 -59.70354 37010 ft 510 kts 54°
2026-05-06 11:34 48.45786 -59.61737 37001 ft 510 kts 54°
2026-05-06 11:34 48.49927 -59.53045 37002 ft 510 kts 54°
2026-05-06 11:35 48.54061 -59.44341 37001 ft 510 kts 54°
2026-05-06 11:35 48.58191 -59.35618 37002 ft 510 kts 54°
2026-05-06 11:36 48.62282 -59.26948 36998 ft 510 kts 54°
2026-05-06 11:36 48.66398 -59.18196 36998 ft 510 kts 54°
2026-05-06 11:37 48.70506 -59.09433 37007 ft 510 kts 54°
2026-05-06 11:37 48.74608 -59.00655 36994 ft 511 kts 54°
2026-05-06 11:38 48.78710 -58.91848 37009 ft 511 kts 54°
2026-05-06 11:38 48.82781 -58.83078 37007 ft 511 kts 54°
2026-05-06 11:39 48.86873 -58.74235 37020 ft 511 kts 55°
2026-05-06 11:39 48.90954 -58.65390 36996 ft 509 kts 55°
2026-05-06 11:40 48.95012 -58.56561 36999 ft 509 kts 55°
2026-05-06 11:40 48.99036 -58.47779 36994 ft 508 kts 55°
2026-05-06 11:41 49.03075 -58.38933 36996 ft 509 kts 55°
2026-05-06 11:41 49.07115 -58.30058 36988 ft 509 kts 55°
2026-05-06 11:42 49.11116 -58.21238 36994 ft 509 kts 55°
2026-05-06 11:42 49.15143 -58.12334 36996 ft 509 kts 55°
2026-05-06 11:43 49.19160 -58.03419 36990 ft 509 kts 55°
2026-05-06 11:43 49.23176 -57.94480 36988 ft 509 kts 56°
2026-05-06 11:44 49.29159 -57.81105 36986 ft 509 kts 56°
2026-05-06 11:44 49.33155 -57.72134 36994 ft 509 kts 56°
2026-05-06 11:45 49.37151 -57.63129 36981 ft 510 kts 56°
2026-05-06 11:45 49.41147 -57.54101 36966 ft 511 kts 56°
2026-05-06 11:46 49.45101 -57.45130 36963 ft 509 kts 56°
2026-05-06 11:46 49.49065 -57.36108 36968 ft 508 kts 56°
2026-05-06 11:47 49.53022 -57.27075 36966 ft 508 kts 56°
2026-05-06 11:47 49.56941 -57.18100 36972 ft 508 kts 56°
2026-05-06 11:48 49.60881 -57.09045 36969 ft 508 kts 56°
2026-05-06 11:48 49.64815 -56.99969 36978 ft 509 kts 56°
2026-05-06 11:49 49.68747 -56.90868 36966 ft 509 kts 56°
2026-05-06 11:49 49.72675 -56.81747 36958 ft 509 kts 56°
2026-05-06 11:50 49.76568 -56.72676 36966 ft 509 kts 56°
2026-05-06 11:50 49.80480 -56.63524 36961 ft 510 kts 56°
2026-05-06 11:51 49.84397 -56.54333 36953 ft 511 kts 56°
2026-05-06 11:51 49.88309 -56.45124 36973 ft 511 kts 56°
2026-05-06 11:52 49.92187 -56.35962 36951 ft 511 kts 56°
2026-05-06 11:52 49.96084 -56.26715 36959 ft 512 kts 56°
2026-05-06 11:53 49.99981 -56.17436 36960 ft 511 kts 56°
2026-05-06 11:53 50.03862 -56.08172 36955 ft 511 kts 56°
2026-05-06 11:54 50.07711 -55.98957 36955 ft 511 kts 56°
2026-05-06 11:54 50.11578 -55.89651 36944 ft 512 kts 56°
2026-05-06 11:55 50.15445 -55.80322 36949 ft 512 kts 56°
2026-05-06 11:55 50.19305 -55.70977 36951 ft 512 kts 56°
2026-05-06 11:56 50.23131 -55.61679 36943 ft 512 kts 56°
2026-05-06 11:56 50.26979 -55.52285 36946 ft 513 kts 56°
2026-05-06 11:57 50.30832 -55.42858 36943 ft 514 kts 56°
2026-05-06 11:57 50.34674 -55.33421 36941 ft 514 kts 56°
2026-05-06 11:58 50.38485 -55.24024 36942 ft 514 kts 56°
2026-05-06 11:58 50.42313 -55.14544 36953 ft 514 kts 56°
2026-05-06 11:59 50.46142 -55.05038 36945 ft 515 kts 56°
2026-05-06 11:59 50.49961 -54.95523 36944 ft 515 kts 56°
2026-05-06 12:00 50.53747 -54.86052 36949 ft 515 kts 56°
2026-05-06 12:00 50.57550 -54.76503 36946 ft 515 kts 56°
2026-05-06 12:01 50.61346 -54.66936 36951 ft 515 kts 56°
2026-05-06 12:01 50.65134 -54.57355 36953 ft 514 kts 56°
2026-05-06 12:02 50.68884 -54.47828 36962 ft 514 kts 56°
2026-05-06 12:02 50.72647 -54.38232 36954 ft 513 kts 56°
2026-05-06 12:03 50.76404 -54.28633 36953 ft 513 kts 56°
2026-05-06 12:03 50.80154 -54.19010 36953 ft 513 kts 56°
2026-05-06 12:04 50.83866 -54.09444 36971 ft 513 kts 56°
2026-05-06 12:04 50.87596 -53.99790 36959 ft 513 kts 56°
2026-05-06 12:05 50.91318 -53.90134 36961 ft 513 kts 56°
2026-05-06 12:05 50.95011 -53.80516 36961 ft 513 kts 56°
2026-05-06 12:06 50.98714 -53.70828 36971 ft 513 kts 56°
2026-05-06 12:06 51.02416 -53.61107 36943 ft 514 kts 56°
2026-05-06 12:07 51.06096 -53.51402 36954 ft 511 kts 56°
2026-05-06 12:07 51.09785 -53.41655 37190 ft 515 kts 56°
2026-05-06 12:08 51.11604 -53.36830 37524 ft 514 kts 56°
2026-05-06 12:08 51.13438 -53.31951 37875 ft 513 kts 56°
2026-05-06 12:08 51.16959 -53.22074 37954 ft 512 kts 61°
2026-05-06 12:09 51.19927 -53.11709 37958 ft 514 kts 64°
2026-05-06 12:09 51.22772 -53.01238 37959 ft 514 kts 64°
2026-05-06 12:10 51.25598 -52.90831 37962 ft 514 kts 64°
2026-05-06 12:10 51.28433 -52.80380 37965 ft 510 kts 64°
2026-05-06 12:11 51.31253 -52.69965 37959 ft 510 kts 64°
2026-05-06 12:11 51.34064 -52.59539 37966 ft 510 kts 64°
2026-05-06 12:12 51.36847 -52.49169 37960 ft 510 kts 64°
2026-05-06 12:12 51.39627 -52.38756 37956 ft 505 kts 64°
2026-05-06 12:13 51.42374 -52.28426 37966 ft 503 kts 65°
2026-05-06 12:13 51.45110 -52.18095 37967 ft 503 kts 65°
2026-05-06 12:14 51.47816 -52.07827 37966 ft 503 kts 65°
2026-05-06 12:14 51.50533 -51.97472 37982 ft 503 kts 65°
2026-05-06 12:15 51.53234 -51.87132 37969 ft 501 kts 65°
2026-05-06 12:15 51.55920 -51.76796 37979 ft 501 kts 65°
2026-05-06 12:16 51.58579 -51.66523 37978 ft 501 kts 65°
2026-05-06 12:16 51.61248 -51.56162 37983 ft 501 kts 65°
2026-05-06 12:17 51.63906 -51.45787 37980 ft 501 kts 65°
2026-05-06 12:17 51.66555 -51.35399 37978 ft 501 kts 65°
2026-05-06 12:18 51.69183 -51.25065 37976 ft 501 kts 65°
2026-05-06 12:18 51.71816 -51.14658 37982 ft 501 kts 65°
2026-05-06 12:19 51.74440 -51.04234 38005 ft 501 kts 65°
2026-05-06 12:19 51.77061 -50.93768 37994 ft 502 kts 65°
2026-05-06 12:20 51.79656 -50.83364 37986 ft 502 kts 65°
2026-05-06 12:20 51.82260 -50.72875 37990 ft 502 kts 65°
2026-05-06 12:21 51.84857 -50.62364 37992 ft 502 kts 65°
2026-05-06 12:21 51.87443 -50.51844 37999 ft 502 kts 65°
2026-05-06 12:22 51.90019 -50.41314 38011 ft 502 kts 65°
2026-05-06 12:22 51.92565 -50.30848 38000 ft 501 kts 65°
2026-05-06 12:23 51.95117 -50.20320 37998 ft 501 kts 65°
2026-05-06 12:23 51.97655 -50.09791 38037 ft 501 kts 66°
2026-05-06 12:24 52.00024 -49.99141 38011 ft 502 kts 71°
2026-05-06 12:24 52.01749 -49.88202 38018 ft 504 kts 75°
2026-05-06 12:25 52.03323 -49.77103 38005 ft 504 kts 75°
2026-05-06 12:25 52.04892 -49.65994 38017 ft 504 kts 75°
2026-05-06 12:26 52.06461 -49.54880 38043 ft 504 kts 75°
2026-05-06 12:26 52.08013 -49.43822 38027 ft 504 kts 75°
2026-05-06 12:27 52.09563 -49.32688 38028 ft 504 kts 75°
2026-05-06 12:27 52.11105 -49.21553 38033 ft 504 kts 75°
2026-05-06 12:28 52.12639 -49.10402 38031 ft 504 kts 75°
2026-05-06 12:28 52.14149 -48.99326 38070 ft 504 kts 75°
2026-05-06 12:29 52.15659 -48.88162 38046 ft 504 kts 75°
2026-05-06 12:29 52.17158 -48.77002 38046 ft 504 kts 75°
2026-05-06 12:30 52.18647 -48.65830 38050 ft 504 kts 75°
2026-05-06 12:30 52.20114 -48.54731 38047 ft 504 kts 75°
2026-05-06 12:31 52.21580 -48.43541 38050 ft 504 kts 75°
2026-05-06 12:31 52.23039 -48.32342 38061 ft 504 kts 75°
2026-05-06 12:32 52.24488 -48.21134 38061 ft 504 kts 75°
2026-05-06 12:32 52.25926 -48.09906 38060 ft 504 kts 75°
2026-05-06 12:33 52.27343 -47.98757 38068 ft 504 kts 75°
2026-05-06 12:33 52.28760 -47.87520 38067 ft 505 kts 75°
2026-05-06 12:34 52.30167 -47.76262 38076 ft 506 kts 75°
2026-05-06 12:34 52.31564 -47.64982 38079 ft 505 kts 75°
2026-05-06 12:35 52.32942 -47.53774 38081 ft 505 kts 75°
2026-05-06 12:35 52.34319 -47.42490 38081 ft 505 kts 75°
2026-05-06 12:36 52.35685 -47.31193 38086 ft 505 kts 76°
2026-05-06 12:36 52.37039 -47.19902 38095 ft 505 kts 76°
2026-05-06 12:37 52.38383 -47.08597 38090 ft 505 kts 76°
2026-05-06 12:37 52.39706 -46.97366 38095 ft 505 kts 76°
2026-05-06 12:38 52.41029 -46.86048 38094 ft 505 kts 76°
2026-05-06 12:38 52.42337 -46.74722 38095 ft 505 kts 76°
2026-05-06 12:39 52.43637 -46.63404 38117 ft 505 kts 76°
2026-05-06 12:39 52.44917 -46.52156 38111 ft 505 kts 76°
2026-05-06 12:40 52.46195 -46.40827 38111 ft 505 kts 76°
2026-05-06 12:40 52.47462 -46.29488 38108 ft 505 kts 76°
2026-05-06 12:41 52.48718 -46.18143 38110 ft 505 kts 76°
2026-05-06 12:41 52.49955 -46.06857 38121 ft 505 kts 76°
2026-05-06 12:42 52.51189 -45.95498 38119 ft 505 kts 76°
2026-05-06 12:42 52.52410 -45.84138 38121 ft 504 kts 76°
2026-05-06 12:43 52.53621 -45.72790 38123 ft 504 kts 76°
2026-05-06 12:43 52.54814 -45.61510 38123 ft 504 kts 76°
2026-05-06 12:44 52.56004 -45.50144 38143 ft 503 kts 76°
2026-05-06 12:44 52.57179 -45.38791 38125 ft 503 kts 77°
2026-05-06 12:45 52.58342 -45.27443 38118 ft 503 kts 77°
2026-05-06 12:46 52.60061 -45.10483 38134 ft 503 kts 77°
2026-05-06 12:46 52.61198 -44.99119 38135 ft 503 kts 77°
2026-05-06 12:47 52.62325 -44.87742 38126 ft 503 kts 77°
2026-05-06 12:47 52.63440 -44.76363 38128 ft 503 kts 77°
2026-05-06 12:48 52.64495 -44.65496 38132 ft 503 kts 77°
2026-05-06 12:48 52.64684 -44.63532 38132 ft 503 kts 77°
2026-05-06 12:49 52.65777 -44.52139 38136 ft 503 kts 77°
2026-05-06 12:49 52.66859 -44.40733 38134 ft 503 kts 77°
2026-05-06 12:50 52.67921 -44.29420 38142 ft 501 kts 77°
2026-05-06 12:50 52.68977 -44.18047 38141 ft 501 kts 78°
2026-05-06 12:51 52.70021 -44.06675 38129 ft 501 kts 77°
2026-05-06 12:51 52.71056 -43.95296 38133 ft 501 kts 78°
2026-05-06 12:52 52.72071 -43.83990 38143 ft 501 kts 78°
2026-05-06 12:52 52.73084 -43.72608 38160 ft 501 kts 78°
2026-05-06 12:53 52.74086 -43.61228 38141 ft 500 kts 78°
2026-05-06 12:53 52.75076 -43.49836 38141 ft 500 kts 78°
2026-05-06 12:54 52.76055 -43.38445 38140 ft 500 kts 78°
2026-05-06 12:54 52.77017 -43.27120 38142 ft 500 kts 78°
2026-05-06 12:55 52.77974 -43.15719 38159 ft 500 kts 78°
2026-05-06 12:55 52.78920 -43.04317 38144 ft 500 kts 78°
2026-05-06 12:56 52.79855 -42.92906 38135 ft 500 kts 78°
2026-05-06 12:56 52.80774 -42.81562 38138 ft 501 kts 79°
2026-05-06 12:57 52.81687 -42.70137 38136 ft 501 kts 79°
2026-05-06 12:57 52.82591 -42.58703 38161 ft 500 kts 79°
2026-05-06 12:58 52.83483 -42.47279 38134 ft 500 kts 79°
2026-05-06 12:58 52.84213 -42.37791 38135 ft 500 kts 79°
2026-05-06 12:59 52.85084 -42.26362 38138 ft 500 kts 79°
2026-05-06 12:59 52.86082 -42.13071 38135 ft 500 kts 79°
2026-05-06 13:00 52.86928 -42.01632 38137 ft 500 kts 79°
2026-05-06 13:00 52.87626 -41.92120 38142 ft 499 kts 80°
2026-05-06 13:01 52.88451 -41.80686 38139 ft 499 kts 80°
2026-05-06 13:01 52.89264 -41.69259 38127 ft 499 kts 80°
2026-05-06 13:02 52.90062 -41.57903 38125 ft 499 kts 80°
2026-05-06 13:02 52.90854 -41.46460 38123 ft 499 kts 80°
2026-05-06 13:03 52.91638 -41.35016 38135 ft 499 kts 81°
2026-05-06 13:03 52.92408 -41.23575 38126 ft 498 kts 81°
2026-05-06 13:04 52.93164 -41.12147 38125 ft 498 kts 81°
2026-05-06 13:04 52.93906 -41.00788 38125 ft 498 kts 81°
2026-05-06 13:05 52.94642 -40.89345 38125 ft 498 kts 81°
2026-05-06 13:05 52.95368 -40.77905 38149 ft 498 kts 81°
2026-05-06 13:06 52.96080 -40.66495 38128 ft 496 kts 81°
2026-05-06 13:06 52.96775 -40.55174 38125 ft 496 kts 81°
2026-05-06 13:07 52.97465 -40.43762 38125 ft 497 kts 82°
2026-05-06 13:07 52.98144 -40.32333 38125 ft 497 kts 82°
2026-05-06 13:08 52.98808 -40.20977 38128 ft 497 kts 82°
2026-05-06 13:08 52.99464 -40.09553 38132 ft 496 kts 82°
2026-05-06 13:09 53.00343 -39.98209 38125 ft 494 kts 77°
2026-05-06 13:09 53.01834 -39.87081 38125 ft 493 kts 73°
2026-05-06 13:10 53.03436 -39.75991 38128 ft 493 kts 73°
2026-05-06 13:10 53.05014 -39.64976 38142 ft 493 kts 74°
2026-05-06 13:11 53.06589 -39.53867 38127 ft 493 kts 74°
2026-05-06 13:11 53.08148 -39.42748 38124 ft 493 kts 74°
2026-05-06 13:12 53.09698 -39.31608 38122 ft 494 kts 75°
2026-05-06 13:12 53.11226 -39.20540 38122 ft 494 kts 75°
2026-05-06 13:13 53.12755 -39.09381 38119 ft 494 kts 75°
2026-05-06 13:13 53.14275 -38.98215 38122 ft 494 kts 75°
2026-05-06 13:14 53.15783 -38.87044 38122 ft 494 kts 75°
2026-05-06 13:14 53.17270 -38.75944 38122 ft 494 kts 75°
2026-05-06 13:15 53.18757 -38.64761 38119 ft 494 kts 75°
2026-05-06 13:15 53.20237 -38.53565 38127 ft 494 kts 75°
2026-05-06 13:16 53.21704 -38.42356 38118 ft 494 kts 75°
2026-05-06 13:16 53.23159 -38.31144 38119 ft 494 kts 76°
2026-05-06 13:17 53.24595 -38.19998 38119 ft 494 kts 76°
2026-05-06 13:17 53.26032 -38.08761 38120 ft 494 kts 76°
2026-05-06 13:18 53.27460 -37.97508 38124 ft 494 kts 76°
2026-05-06 13:18 53.28876 -37.86250 38117 ft 494 kts 76°
2026-05-06 13:19 53.30271 -37.75063 38116 ft 494 kts 76°
2026-05-06 13:19 53.31666 -37.63787 38119 ft 494 kts 76°
2026-05-06 13:20 53.33050 -37.52514 38116 ft 494 kts 76°
2026-05-06 13:20 53.34424 -37.41238 38118 ft 493 kts 77°
2026-05-06 13:21 53.35775 -37.30036 38120 ft 494 kts 77°
2026-05-06 13:21 53.37125 -37.18757 38106 ft 494 kts 77°
2026-05-06 13:22 53.38466 -37.07467 38112 ft 494 kts 77°
2026-05-06 13:22 53.39796 -36.96168 38136 ft 494 kts 77°
2026-05-06 13:23 53.41116 -36.84874 38121 ft 493 kts 77°
2026-05-06 13:23 53.42413 -36.73652 38108 ft 493 kts 77°
2026-05-06 13:24 53.43708 -36.62344 38109 ft 493 kts 77°
2026-05-06 13:24 53.44992 -36.51033 38118 ft 493 kts 77°
2026-05-06 13:25 53.46267 -36.39717 38119 ft 493 kts 78°
2026-05-06 13:25 53.47521 -36.28493 38109 ft 492 kts 78°
2026-05-06 13:26 53.48769 -36.17188 38113 ft 492 kts 78°
2026-05-06 13:26 53.50008 -36.05883 38114 ft 492 kts 78°
2026-05-06 13:27 53.51238 -35.94565 38120 ft 492 kts 78°
2026-05-06 13:27 53.52450 -35.83328 38121 ft 491 kts 79°
2026-05-06 13:28 53.53656 -35.72020 38113 ft 491 kts 79°
2026-05-06 13:28 53.54850 -35.60708 38108 ft 491 kts 79°
2026-05-06 13:29 53.56032 -35.49390 38104 ft 491 kts 79°
2026-05-06 13:29 53.57204 -35.38061 38106 ft 491 kts 79°
2026-05-06 13:30 53.58360 -35.26808 38103 ft 490 kts 79°
2026-05-06 13:30 53.59510 -35.15477 38107 ft 490 kts 79°
2026-05-06 13:31 53.60647 -35.04151 38098 ft 490 kts 79°
2026-05-06 13:31 53.61774 -34.92811 38097 ft 490 kts 80°
2026-05-06 13:32 53.62888 -34.81473 38098 ft 490 kts 80°
2026-05-06 13:32 53.63987 -34.70205 38097 ft 490 kts 80°
2026-05-06 13:33 53.65082 -34.58849 38094 ft 490 kts 80°
2026-05-06 13:33 53.66167 -34.47483 38091 ft 490 kts 80°
2026-05-06 13:34 53.67242 -34.36110 38085 ft 490 kts 80°
2026-05-06 13:34 53.68299 -34.24803 38084 ft 490 kts 81°
2026-05-06 13:35 53.69353 -34.13419 38085 ft 491 kts 81°
2026-05-06 13:35 53.70395 -34.02019 38085 ft 491 kts 81°
2026-05-06 13:36 53.71427 -33.90612 38078 ft 490 kts 81°
2026-05-06 13:36 53.72441 -33.79283 38075 ft 491 kts 81°
2026-05-06 13:37 53.73450 -33.67866 38070 ft 491 kts 81°
2026-05-06 13:37 53.74448 -33.56442 38071 ft 490 kts 81°
2026-05-06 13:38 53.75436 -33.45026 38065 ft 491 kts 81°
2026-05-06 13:38 53.76407 -33.33665 38066 ft 490 kts 81°
2026-05-06 13:39 53.77374 -33.22229 38067 ft 490 kts 81°
2026-05-06 13:39 53.78330 -33.10797 38067 ft 491 kts 82°
2026-05-06 13:40 53.79277 -32.99343 38060 ft 491 kts 82°
2026-05-06 13:40 53.80204 -32.87962 38057 ft 491 kts 82°
2026-05-06 13:41 53.81127 -32.76506 38060 ft 491 kts 82°
2026-05-06 13:41 53.82041 -32.65032 38052 ft 491 kts 82°
2026-05-06 13:42 53.82943 -32.53564 38054 ft 491 kts 82°
2026-05-06 13:42 53.83828 -32.42170 38047 ft 490 kts 82°
2026-05-06 13:43 53.84706 -32.30706 38045 ft 490 kts 82°
2026-05-06 13:43 53.85575 -32.19226 38040 ft 490 kts 82°
2026-05-06 13:44 53.86432 -32.07748 38037 ft 491 kts 83°
2026-05-06 13:44 53.87272 -31.96348 38038 ft 490 kts 83°
2026-05-06 13:45 53.88106 -31.84891 38035 ft 489 kts 83°
2026-05-06 13:45 53.89334 -31.67711 38032 ft 489 kts 83°
2026-05-06 13:46 53.90140 -31.56243 38031 ft 489 kts 83°
2026-05-06 13:46 53.90929 -31.44854 38024 ft 489 kts 83°
2026-05-06 13:47 53.91713 -31.33393 38026 ft 487 kts 83°
2026-05-06 13:47 53.92483 -31.21963 38027 ft 487 kts 83°
2026-05-06 13:48 53.93241 -31.10533 38021 ft 487 kts 83°
2026-05-06 13:48 53.93984 -30.99175 38014 ft 487 kts 83°
2026-05-06 13:49 53.94721 -30.87735 38016 ft 487 kts 84°
2026-05-06 13:49 53.95448 -30.76294 38019 ft 486 kts 84°
2026-05-06 13:50 53.96163 -30.64852 38016 ft 486 kts 84°
2026-05-06 13:50 53.96861 -30.53493 38015 ft 486 kts 84°
2026-05-06 13:51 53.97555 -30.42039 38011 ft 487 kts 84°
2026-05-06 13:51 53.98239 -30.30571 38016 ft 487 kts 84°
2026-05-06 13:52 53.98913 -30.19070 38017 ft 491 kts 84°
2026-05-06 13:52 53.99577 -30.07526 38026 ft 491 kts 84°
2026-05-06 13:53 54.00586 -29.96124 38026 ft 491 kts 78°
2026-05-06 13:53 54.02153 -29.84819 38027 ft 491 kts 76°
2026-05-06 13:54 54.03778 -29.73528 38043 ft 491 kts 76°
2026-05-06 13:54 54.05373 -29.62326 38038 ft 490 kts 76°
2026-05-06 13:55 54.06963 -29.51034 38038 ft 490 kts 76°
2026-05-06 13:55 54.08539 -29.39736 38044 ft 489 kts 76°
2026-05-06 13:56 54.10103 -29.28443 38048 ft 488 kts 77°
2026-05-06 13:56 54.11655 -29.17149 38046 ft 488 kts 77°
2026-05-06 13:57 54.13181 -29.05957 38053 ft 487 kts 77°
2026-05-06 13:57 54.14705 -28.94695 38053 ft 486 kts 77°
2026-05-06 13:58 54.16218 -28.83429 38053 ft 486 kts 77°
2026-05-06 13:58 54.17721 -28.72150 38058 ft 486 kts 77°
2026-05-06 13:59 54.19202 -28.60957 38051 ft 485 kts 77°
2026-05-06 13:59 54.20679 -28.49702 38059 ft 485 kts 77°
2026-05-06 14:00 54.22146 -28.38435 38068 ft 485 kts 77°
2026-05-06 14:00 54.23590 -28.27249 38068 ft 485 kts 78°
2026-05-06 14:01 54.25036 -28.15969 38068 ft 485 kts 78°
2026-05-06 14:01 54.26470 -28.04686 38071 ft 485 kts 78°
2026-05-06 14:02 54.27894 -27.93393 38069 ft 485 kts 78°
2026-05-06 14:02 54.29308 -27.82094 38068 ft 485 kts 78°
2026-05-06 14:03 54.30701 -27.70862 38068 ft 485 kts 78°
2026-05-06 14:03 54.32094 -27.59558 38070 ft 484 kts 78°
2026-05-06 14:04 54.33475 -27.48239 38070 ft 484 kts 78°
2026-05-06 14:04 54.34844 -27.36922 38069 ft 484 kts 78°
2026-05-06 14:05 54.36194 -27.25669 38075 ft 484 kts 78°
2026-05-06 14:05 54.37543 -27.14331 38074 ft 484 kts 79°
2026-05-06 14:06 54.38883 -27.02992 38074 ft 485 kts 79°
2026-05-06 14:06 54.40210 -26.91639 38076 ft 485 kts 79°
2026-05-06 14:07 54.41518 -26.80352 38075 ft 485 kts 79°
2026-05-06 14:07 54.42825 -26.68979 38072 ft 485 kts 79°
2026-05-06 14:08 54.44121 -26.57604 38065 ft 485 kts 79°
2026-05-06 14:08 54.45408 -26.46216 38070 ft 485 kts 79°
2026-05-06 14:09 54.46674 -26.34898 38073 ft 485 kts 79°
2026-05-06 14:09 54.47940 -26.23485 38066 ft 485 kts 80°
2026-05-06 14:10 54.49193 -26.12078 38068 ft 485 kts 80°
2026-05-06 14:10 54.50437 -26.00660 38068 ft 485 kts 80°
2026-05-06 14:11 54.51662 -25.89306 38066 ft 485 kts 80°
2026-05-06 14:11 54.52884 -25.77871 38070 ft 485 kts 80°
2026-05-06 14:12 54.54095 -25.66432 38063 ft 485 kts 80°
2026-05-06 14:12 54.55295 -25.54989 38065 ft 485 kts 81°
2026-05-06 14:13 54.56476 -25.43627 38064 ft 484 kts 81°
2026-05-06 14:13 54.57654 -25.32175 38057 ft 484 kts 81°
2026-05-06 14:14 54.58820 -25.20727 38060 ft 484 kts 81°
2026-05-06 14:14 54.59974 -25.09277 38057 ft 484 kts 81°
2026-05-06 14:15 54.61111 -24.97892 38049 ft 484 kts 81°
2026-05-06 14:15 54.62246 -24.86425 38050 ft 484 kts 81°
2026-05-06 14:16 54.63368 -24.74956 38052 ft 484 kts 81°
2026-05-06 14:16 54.64480 -24.63478 38048 ft 484 kts 82°
2026-05-06 14:17 54.65581 -24.51990 38049 ft 484 kts 82°
2026-05-06 14:17 54.66663 -24.40582 38045 ft 484 kts 82°
2026-05-06 14:18 54.67743 -24.29077 38046 ft 485 kts 82°
2026-05-06 14:18 54.68814 -24.17552 38038 ft 485 kts 82°
2026-05-06 14:19 54.69873 -24.06026 38042 ft 485 kts 82°
2026-05-06 14:19 54.70914 -23.94581 38032 ft 484 kts 82°
2026-05-06 14:20 54.71948 -23.83058 38035 ft 485 kts 82°
2026-05-06 14:20 54.72975 -23.71511 38035 ft 485 kts 82°
2026-05-06 14:21 54.73992 -23.59961 38036 ft 485 kts 82°
2026-05-06 14:21 54.74991 -23.48471 38029 ft 485 kts 82°
2026-05-06 14:22 54.75984 -23.36911 38029 ft 485 kts 82°
2026-05-06 14:22 54.76966 -23.25325 38025 ft 486 kts 82°
2026-05-06 14:23 54.77941 -23.13724 38024 ft 486 kts 82°
2026-05-06 14:23 54.78899 -23.02191 38026 ft 486 kts 82°
2026-05-06 14:24 54.79851 -22.90576 38017 ft 486 kts 83°
2026-05-06 14:24 54.80792 -22.78957 38018 ft 486 kts 83°
2026-05-06 14:25 54.81722 -22.67331 38010 ft 486 kts 83°
2026-05-06 14:25 54.82641 -22.55698 38015 ft 486 kts 83°
2026-05-06 14:26 54.83542 -22.44140 38014 ft 486 kts 83°
2026-05-06 14:26 54.84439 -22.32503 38013 ft 486 kts 83°
2026-05-06 14:27 54.85322 -22.20858 38007 ft 486 kts 83°
2026-05-06 14:27 54.86198 -22.09195 38007 ft 487 kts 83°
2026-05-06 14:28 54.87059 -21.97591 38003 ft 487 kts 83°
2026-05-06 14:28 54.87911 -21.85916 38009 ft 487 kts 83°
2026-05-06 14:29 54.88754 -21.74233 38000 ft 487 kts 83°
2026-05-06 14:29 54.89587 -21.62545 37997 ft 487 kts 83°
2026-05-06 14:30 54.90406 -21.50944 37997 ft 486 kts 83°
2026-05-06 14:30 54.91218 -21.39265 37999 ft 486 kts 83°
2026-05-06 14:31 54.92017 -21.27583 37993 ft 486 kts 84°
2026-05-06 14:31 54.92807 -21.15888 37993 ft 486 kts 84°
2026-05-06 14:32 54.93577 -21.04267 37995 ft 487 kts 84°
2026-05-06 14:32 54.94346 -20.92556 37989 ft 487 kts 84°
2026-05-06 14:33 54.95103 -20.80837 37991 ft 487 kts 84°
2026-05-06 14:33 54.95848 -20.69114 37990 ft 487 kts 84°
2026-05-06 14:34 54.96576 -20.57464 37994 ft 487 kts 84°
2026-05-06 14:34 54.97298 -20.45721 37989 ft 488 kts 84°
2026-05-06 14:35 54.98012 -20.33961 37988 ft 487 kts 84°
2026-05-06 14:35 54.98714 -20.22209 37980 ft 487 kts 84°
2026-05-06 14:36 54.99397 -20.10529 37981 ft 487 kts 84°
2026-05-06 14:36 55.00016 -19.98752 37984 ft 488 kts 87°
2026-05-06 14:37 55.00279 -19.86906 37980 ft 489 kts 88°
2026-05-06 14:37 55.00495 -19.75067 37980 ft 489 kts 88°
2026-05-06 14:38 55.00702 -19.63295 37977 ft 489 kts 88°
2026-05-06 14:38 55.00902 -19.51439 37972 ft 489 kts 88°
2026-05-06 14:39 55.01088 -19.39584 37970 ft 489 kts 88°
2026-05-06 14:39 55.01267 -19.27724 37973 ft 489 kts 88°
2026-05-06 14:40 55.01421 -19.15943 37966 ft 489 kts 91°
2026-05-06 14:40 55.00610 -19.04183 37976 ft 489 kts 99°
2026-05-06 14:41 54.99487 -18.92489 37974 ft 489 kts 99°
2026-05-06 14:41 54.98537 -18.80740 37960 ft 490 kts 92°
2026-05-06 14:42 54.98567 -18.68935 37976 ft 490 kts 88°
2026-05-06 14:42 54.98727 -18.57049 37969 ft 490 kts 88°
2026-05-06 14:43 54.98852 -18.45164 37976 ft 490 kts 88°
2026-05-06 14:43 54.98947 -18.33355 37974 ft 490 kts 89°
2026-05-06 14:44 54.99023 -18.21462 37976 ft 491 kts 88°
2026-05-06 14:45 54.99117 -18.03575 37969 ft 492 kts 89°
2026-05-06 14:45 54.99164 -17.91648 37959 ft 492 kts 89°
2026-05-06 14:46 54.99199 -17.79801 37964 ft 491 kts 89°
2026-05-06 14:46 54.99221 -17.67907 37966 ft 490 kts 89°
2026-05-06 14:47 54.99233 -17.56004 37969 ft 491 kts 89°